This demonstration page uses our WeatherBlox Daily Observations layout. Learn more.

Left ArrowRight Arrow

44.8408, -93.29828

Hourly Observations for April 11, 2022

Temp ( °F °C ) Dew Point ( °F °C ) Humidity (%) Winds ( mph kmh ) Pressure ( in mb ) Visibility ( mi km ) Precip ( " mm )
12:53 am 00:53 Mostly Cloudy 42 5.6 34 1.1 73 73 WSW 23 37 29.47 998 10 16 0.00 0.00
1:53 am 01:53 Cloudy 42 5.6 34 1.1 73 73 WSW 20 31 29.49 999 10 16 0.00 0.00
2:53 am 02:53 Cloudy 40 4.4 33 0.6 77 77 WSW 22 35 29.53 1000 10 16 0.00 0.00
3:53 am 03:53 Cloudy 39 3.9 32 0 76 76 W 21 33 29.55 1001 10 16 0.00 0.00
4:53 am 04:53 Cloudy 38 3.3 32 0 79 79 WNW 18 30 29.57 1001 10 16 0.00 0.00
5:43 am 05:43 Cloudy 38 3.3 32 0 79 79 WNW 14 22 29.61 1003 10 16 0.00 0.00
5:53 am 05:53 Cloudy 39 3.9 32 0 76 76 WNW 12 19 29.60 1002 10 16 0.00 0.00
6:14 am 06:14 Cloudy 39 3.9 32 0 76 76 WSW 9 15 29.67 1005 10 16 0.00 0.00
6:53 am 06:53 Cloudy 39 3.9 32 0 76 76 W 13 20 29.69 1005 10 16 0.00 0.00
7:31 am 07:31 Partly Cloudy 39 3.9 32 0 76 76 WSW 12 19 29.75 1007 10 16 0.00 0.00
7:53 am 07:53 Mostly Sunny 40 4.4 32 0 73 73 W 13 20 29.74 1007 10 16 0.00 0.00
8:53 am 08:53 Mostly Sunny 45 7.2 32 0 61 61 WNW 13 20 29.75 1007 10 16 0.00 0.00
9:53 am 09:53 Mostly Sunny 48 8.9 31 -0.6 52 52 W 16 26 29.78 1009 10 16 0.00 0.00
10:53 am 10:53 Mostly Sunny 49 9.4 31 -0.6 50 50 W 13 20 29.81 1010 10 16 0.00 0.00
11:53 am 11:53 Mostly Sunny 51 10.6 30 -1.1 44 44 WSW 10 17 29.81 1009 10 16 0.00 0.00
12:53 pm 12:53 Mostly Sunny 54 12.2 29 -1.7 38 38 WSW 14 22 29.80 1009 10 16 0.00 0.00
1:53 pm 13:53 Partly Cloudy 57 13.9 28 -2.2 33 33 WSW 13 20 29.80 1009 10 16 0.00 0.00
2:53 pm 14:53 Partly Cloudy 58 14.4 27 -2.8 31 31 W 18 30 29.80 1009 10 16 0.00 0.00
3:53 pm 15:53 Partly Cloudy 58 14.4 27 -2.8 31 31 W 20 31 29.78 1009 10 16 0.00 0.00
4:53 pm 16:53 Partly Cloudy 58 14.4 24 -4.4 27 27 W 17 28 29.79 1009 10 16 0.00 0.00
5:53 pm 17:53 Partly Cloudy 59 15 24 -4.4 26 26 W 13 20 29.80 1009 10 16 0.00 0.00
6:53 pm 18:53 Mostly Sunny 56 13.3 27 -2.8 33 33 W 12 19 29.83 1010 10 16 0.00 0.00
7:53 pm 19:53 Mostly Sunny 54 12.2 27 -2.8 35 35 W 8 13 29.84 1011 10 16 0.00 0.00
8:53 pm 20:53 Mostly Clear 51 10.6 28 -2.2 41 41 WNW 3 6 29.87 1012 10 16 0.00 0.00
9:53 pm 21:53 Mostly Clear 48 8.9 29 -1.7 48 48 NNW 5 7 29.89 1012 10 16 0.00 0.00
10:53 pm 22:53 Mostly Clear 48 8.9 29 -1.7 48 48 Calm 29.90 1012 10 16 0.00 0.00
11:53 pm 23:53 Clear 44 6.7 28 -2.2 53 53 NNE 5 7 29.90 1013 10 16 0.00 0.00

Powered by AerisWeather